Date,TemperatureHighF,TemperatureAvgF,TemperatureLowF,DewpointHighF,DewpointAvgF,DewpointLowF,HumidityHigh,HumidityAvg,HumidityLow,PressureMaxIn,PressureMinIn,WindSpeedMaxMPH,WindSpeedAvgMPH,GustSpeedMaxMPH,PrecipitationSumIn
2013-1-1,53.9,45.8,35.9,52.3,40.0,27.5,97,81,59,29.21,28.94,3,1,6,0.10
2013-1-2,42.8,35.9,29.5,27.3,23.9,20.6,73,62,47,29.29,29.18,2,1,4,0.00
2013-1-3,45.0,37.2,26.9,27.0,23.8,19.9,75,58,46,29.38,29.26,2,0,4,0.00
2013-1-4,42.1,38.6,33.4,35.9,31.3,24.9,87,75,52,29.44,29.32,1,0,3,0.43
2013-1-5,55.8,43.1,33.3,41.0,35.4,26.4,89,75,49,29.32,29.15,2,0,5,0.00
2013-1-6,58.7,41.7,30.5,32.3,26.5,19.6,83,58,32,29.32,29.21,3,1,4,0.00
2013-1-7,54.2,42.0,27.0,34.0,26.5,17.9,71,54,39,29.26,29.03,3,0,5,0.00
2013-1-8,51.6,48.1,45.2,51.6,43.7,32.3,100,86,55,29.03,28.85,3,1,4,1.19
2013-1-9,56.7,54.7,51.6,56.7,54.7,51.6,100,100,100,28.97,28.76,3,1,6,2.51
2013-1-10,61.9,51.5,42.4,52.5,43.7,35.7,100,77,46,29.00,28.91,5,1,9,0.00
2013-1-11,74.9,57.8,40.3,61.8,48.5,34.0,92,73,45,28.97,28.76,4,1,8,0.00
2013-1-12,73.4,63.6,41.8,68.1,56.5,27.7,98,79,46,28.88,28.61,4,2,7,0.00
2013-1-13,50.4,41.0,34.2,27.6,21.9,17.0,59,47,36,29.15,28.88,5,2,8,0.00
2013-1-14,48.3,38.5,31.8,23.7,20.0,16.1,53,47,37,29.21,29.03,3,2,7,0.00
2013-1-15,39.2,35.1,31.9,31.5,26.6,19.7,86,72,50,29.18,29.06,4,2,6,0.00
2013-1-16,53.6,38.4,28.2,25.6,17.7,11.8,59,44,27,29.26,29.12,4,2,7,0.00
2013-1-17,64.8,46.7,31.1,34.3,24.3,16.5,57,42,26,29.44,29.21,3,1,5,0.00
2013-1-18,64.2,45.3,28.8,34.7,24.6,18.3,65,45,28,29.44,29.26,3,0,6,0.00
2013-1-19,67.7,50.8,37.4,43.3,34.2,21.4,76,55,35,29.26,29.09,4,1,6,0.00
2013-1-20,72.5,52.8,35.2,43.8,33.6,26.5,78,51,27,29.18,29.03,2,0,6,0.00
2013-1-21,67.7,52.7,40.6,44.9,34.6,28.2,75,52,35,29.21,29.06,3,1,5,0.00
2013-1-22,70.9,52.4,37.9,44.5,35.6,26.5,69,54,37,29.26,29.12,3,0,6,0.00
2013-1-23,74.4,59.0,45.4,55.0,46.1,38.6,86,64,42,29.26,29.12,4,1,6,0.00
2013-1-24,81.3,66.2,55.8,60.2,53.0,47.4,94,66,35,29.18,29.03,3,1,6,0.00
2013-1-25,80.1,65.4,52.3,58.7,52.2,41.1,87,65,39,29.12,28.97,3,1,7,0.00
2013-1-26,60.6,53.8,49.5,52.3,46.7,41.9,88,77,68,29.15,29.03,2,0,4,0.00
2013-1-27,77.1,66.4,52.5,61.2,57.3,49.0,92,74,47,29.06,28.91,4,2,9,0.00
2013-1-28,77.6,71.1,67.7,63.3,60.6,57.2,81,70,50,28.97,28.82,5,2,11,0.00
2013-1-29,79.8,68.4,53.5,62.8,51.3,20.5,80,57,27,28.85,28.50,6,3,10,0.12
2013-1-30,59.3,48.6,32.5,24.2,17.8,8.6,40,30,17,29.15,28.76,7,2,10,0.00
2013-1-31,69.5,47.8,27.8,26.7,16.7,10.6,49,31,12,29.21,29.09,3,1,8,0.00
2013-2-1,70.3,53.7,37.9,35.6,26.3,17.3,46,35,24,29.29,29.12,3,1,6,0.00
2013-2-2,75.8,58.7,41.2,47.0,36.9,27.9,63,45,31,29.26,29.12,3,1,6,0.00
2013-2-3,70.8,56.5,36.9,36.1,28.4,20.8,55,36,20,29.29,28.97,3,1,10,0.00
2013-2-4,75.9,62.2,52.0,55.1,47.7,34.2,84,60,39,28.97,28.76,3,1,6,0.05
2013-2-5,80.1,65.4,48.9,48.4,42.0,37.7,78,46,26,28.94,28.82,2,1,6,0.00
2013-2-6,75.7,64.4,56.7,56.0,49.0,41.3,77,58,43,28.97,28.79,2,1,6,0.00
2013-2-7,85.8,64.3,57.4,58.4,48.4,29.7,88,61,20,29.06,28.79,4,2,7,0.00
2013-2-8,69.5,55.5,45.2,37.6,28.2,18.3,56,37,17,29.18,29.06,3,1,6,0.00
2013-2-9,67.6,55.7,50.1,64.2,46.3,24.8,93,72,37,29.06,28.73,4,1,6,0.00
2013-2-10,68.2,59.4,52.7,64.9,43.1,30.0,94,58,28,28.97,28.70,6,1,7,1.74
2013-2-11,61.4,54.2,49.8,44.3,39.5,34.4,73,58,37,29.03,28.94,4,2,6,0.00
2013-2-12,71.7,56.7,45.9,53.4,41.5,25.4,89,62,24,29.03,28.76,4,2,10,0.05
2013-2-13,65.0,47.9,37.8,33.5,28.6,23.5,67,49,28,29.12,28.97,4,1,6,0.00
2013-2-14,72.1,51.2,34.0,38.7,28.7,23.6,70,46,22,29.09,28.94,3,0,5,0.00
2013-2-15,61.8,48.4,36.8,33.7,27.1,17.3,58,44,34,29.32,29.00,4,1,10,0.00
2013-2-16,68.2,51.4,28.6,29.3,23.2,15.7,56,35,23,29.38,29.15,3,1,6,0.00
2013-2-17,70.9,53.8,34.7,43.8,28.8,18.6,56,40,23,29.15,28.91,4,2,9,0.00
2013-2-18,82.4,66.0,53.8,54.8,41.0,18.3,71,46,13,29.06,28.79,5,3,10,0.00
2013-2-19,66.7,56.1,39.4,30.2,24.5,18.5,45,30,21,29.23,29.06,4,2,8,0.00
2013-2-20,58.1,52.7,49.9,56.8,37.5,23.2,96,60,28,29.09,28.64,4,2,7,0.10
2013-2-21,77.1,63.6,45.5,64.6,33.6,16.5,98,40,11,28.82,28.56,7,2,11,0.07
2013-2-22,60.3,46.8,37.9,32.9,25.8,21.0,66,44,32,29.03,28.79,3,1,6,0.00
2013-2-23,71.4,50.7,34.4,35.2,26.0,19.5,58,40,24,29.03,28.85,3,1,6,0.00
2013-2-24,74.8,57.0,34.2,51.3,35.9,20.5,71,47,31,28.88,28.56,4,1,8,0.00
2013-2-25,64.9,55.1,44.2,55.2,32.1,20.4,86,45,23,28.79,28.53,9,4,15,0.04
2013-2-26,68.1,50.4,37.6,29.2,24.5,20.5,50,38,23,28.91,28.79,5,2,8,0.00
2013-2-27,63.4,48.5,39.6,29.8,21.3,12.7,50,35,23,29.18,28.82,6,2,9,0.00
2013-2-28,64.2,47.6,35.5,26.3,19.7,12.4,50,34,22,29.26,29.12,4,1,6,0.00
2013-3-1,70.1,49.9,29.8,29.5,19.9,12.5,51,32,15,29.23,29.09,5,1,8,0.00
2013-3-2,64.4,48.3,35.6,26.9,21.6,16.4,54,36,24,29.35,29.21,5,2,8,0.00
2013-3-3,76.3,52.8,34.1,33.9,24.5,15.2,49,35,18,29.21,28.85,5,2,8,0.00
2013-3-4,90.0,68.1,55.0,45.2,37.8,30.8,62,36,16,28.85,28.64,4,2,8,0.00
2013-3-5,66.9,55.0,36.0,43.9,18.1,-0.8,53,26,10,29.32,28.70,6,2,9,0.00
2013-3-6,66.4,47.3,30.1,24.5,12.7,2.5,36,25,14,29.38,29.15,3,1,6,0.00
2013-3-7,73.1,56.2,36.7,44.8,31.8,10.3,55,40,30,29.21,29.03,3,1,6,0.00
2013-3-8,63.0,59.4,56.0,60.0,51.4,43.5,90,75,54,29.12,28.97,3,1,7,0.07
2013-3-9,71.2,65.4,61.0,64.0,59.4,54.6,89,81,69,28.97,28.61,4,2,10,0.21
2013-3-10,64.4,57.1,42.2,60.1,37.0,24.4,92,50,29,29.06,28.73,6,2,11,0.87
2013-3-11,68.3,49.0,34.9,28.0,23.3,19.9,59,39,20,29.12,28.97,4,1,8,0.00
2013-3-12,80.4,57.0,35.2,37.0,28.3,21.1,59,37,17,29.21,29.00,4,1,7,0.00
2013-3-13,75.8,60.4,43.8,34.7,29.2,22.5,43,32,21,29.38,29.21,3,1,6,0.00
2013-3-14,78.8,62.5,46.2,45.6,36.5,29.2,62,40,24,29.32,29.15,4,1,8,0.00
2013-3-15,81.6,67.0,53.8,50.5,40.7,29.9,75,43,20,29.18,28.94,4,2,10,0.00
2013-3-16,85.0,69.4,57.0,52.4,46.7,38.1,73,48,24,28.97,28.70,5,3,9,0.00
2013-3-17,84.5,71.0,64.0,57.1,53.2,47.7,70,55,32,28.76,28.61,4,1,7,0.00
2013-3-18,86.4,72.2,58.8,61.5,48.0,36.1,82,49,20,28.91,28.67,4,1,7,0.00
2013-3-19,82.9,63.9,46.4,51.0,42.6,31.6,82,47,32,29.00,28.79,4,1,8,0.98
2013-3-20,69.4,59.3,49.8,51.5,39.9,29.3,90,54,24,29.21,29.00,5,2,9,0.16
2013-3-21,73.7,62.3,49.8,54.8,44.7,33.4,70,53,43,29.00,28.56,5,2,9,0.00
2013-3-22,77.3,68.3,52.2,61.4,53.4,40.0,80,61,40,28.76,28.59,4,2,6,0.00
2013-3-23,76.8,56.3,49.3,55.1,45.9,40.3,86,69,44,28.76,28.59,3,1,6,0.00
2013-3-24,58.4,50.3,39.4,55.2,26.8,16.9,89,43,26,29.12,28.67,6,3,10,0.00
2013-3-25,59.5,46.9,33.6,21.5,16.8,13.6,44,31,19,29.32,29.12,3,1,7,0.00
2013-3-26,64.1,48.4,28.1,27.1,19.1,12.2,53,32,21,29.41,29.23,3,1,6,0.00
2013-3-27,70.4,55.4,33.9,38.7,28.4,14.2,50,36,27,29.26,29.09,4,2,8,0.00
2013-3-28,72.7,62.6,52.3,51.9,47.1,37.1,70,58,45,29.15,29.06,4,2,9,0.00
2013-3-29,77.8,67.4,59.2,55.6,50.7,47.3,80,57,35,29.15,29.00,4,2,8,0.00
2013-3-30,80.5,70.0,63.0,57.5,53.6,48.6,76,58,37,29.06,28.85,4,2,6,0.00
2013-3-31,73.2,67.9,62.9,67.3,60.3,54.1,91,77,62,28.94,28.82,3,1,6,0.16
2013-4-1,80.8,68.2,56.5,63.7,56.5,51.2,89,68,42,29.03,28.85,4,1,6,0.00
2013-4-2,71.4,65.5,59.4,64.3,59.8,54.2,93,82,65,28.97,28.76,6,1,10,0.22
2013-4-3,57.3,50.7,48.4,52.4,48.7,45.6,98,93,74,29.09,28.82,6,2,10,0.66
2013-4-4,55.8,48.9,42.4,46.3,39.1,34.1,92,70,50,29.18,29.06,4,2,6,0.00
2013-4-5,69.6,53.9,36.1,44.8,37.4,30.5,84,57,34,29.23,29.00,3,0,6,0.00
2013-4-6,79.0,64.9,51.3,52.2,46.3,40.0,76,53,35,29.00,28.79,4,2,8,0.00
2013-4-7,79.6,68.1,61.9,58.9,55.4,51.9,76,65,43,28.88,28.70,4,2,8,0.00
2013-4-8,73.3,69.0,66.0,62.7,59.6,55.3,80,72,64,28.79,28.64,4,2,8,0.00
2013-4-9,81.8,72.7,69.1,64.4,61.9,59.2,80,70,47,28.67,28.56,4,2,9,0.00
2013-4-10,72.7,53.7,41.9,64.5,45.2,36.1,89,73,55,28.91,28.59,4,2,8,0.17
2013-4-11,65.7,53.5,43.2,36.6,34.1,31.2,73,50,33,28.94,28.76,3,1,6,0.00
2013-4-12,77.8,60.3,41.5,43.7,36.3,31.8,73,45,23,28.97,28.82,3,1,6,0.00
2013-4-13,77.2,63.2,50.5,50.8,43.4,35.8,65,50,28,28.91,28.76,4,0,11,0.00
2013-4-14,87.4,71.8,56.2,60.5,53.2,45.4,82,55,31,28.79,28.56,3,2,7,0.00
2013-4-15,86.4,76.4,68.9,63.5,60.0,57.0,81,59,39,28.76,28.64,4,-160,6,0.00
2013-4-16,87.0,75.2,68.4,63.5,56.9,-99.9,72,57,40,28.85,28.76,4,2,7,0.00
2013-4-17,80.7,40.5,71.8,67.3,-9.2,-99.9,84,41,43,28.85,28.64,4,-66,6,0.00
2013-4-18,73.6,58.4,48.4,68.1,43.1,-99.9,87,61,38,29.06,28.61,4,-210,6,0.00
2013-4-19,65.6,53.6,38.9,32.8,26.5,20.0,64,38,18,29.23,29.06,4,1,6,0.00
2013-4-20,70.4,56.2,35.9,34.7,27.2,21.6,57,35,19,29.18,28.94,3,1,8,0.00
2013-4-21,73.8,62.3,47.6,46.5,41.4,33.6,63,47,36,29.12,28.97,3,1,11,0.00
2013-4-22,83.4,69.9,54.7,52.8,49.4,44.9,79,51,31,29.06,28.82,3,1,6,0.00
2013-4-23,74.8,60.8,47.4,60.8,45.2,-99.9,79,61,43,29.09,28.79,4,2,7,0.00
2013-4-24,63.1,53.8,41.9,35.5,30.4,23.7,66,42,30,29.23,29.09,3,2,7,0.00
2013-4-25,58.3,55.0,53.6,37.7,34.8,31.9,50,46,41,29.29,29.21,3,0,4,0.00
2013-4-26,75.3,66.4,59.4,64.4,53.9,-99.9,87,68,36,29.12,28.94,3,1,7,0.00
2013-4-27,80.4,41.2,67.8,67.0,-9.7,-99.9,89,36,44,29.03,28.91,3,1,6,0.05
2013-4-28,77.9,38.4,61.0,62.5,-11.2,-99.9,86,39,41,29.00,28.82,3,-307,5,0.00
2013-4-29,78.0,39.3,63.5,62.2,-8.0,-99.9,84,42,45,28.88,28.73,0,-999,0,0.10
2013-4-30,80.9,71.0,60.1,63.3,56.6,52.3,88,63,42,28.82,28.70,0,-999,0,0.00
2013-5-1,85.7,75.4,65.7,63.0,58.5,54.5,81,58,39,28.91,28.73,0,-999,0,0.00
2013-5-2,72.3,54.9,45.7,58.6,40.4,28.0,69,58,46,29.29,28.88,0,-999,0,0.00
2013-5-3,67.8,53.8,40.6,29.0,24.7,18.2,53,35,17,29.29,29.03,0,-999,0,0.00
2013-5-4,81.8,62.4,39.4,34.9,24.1,18.1,48,26,12,29.03,28.85,0,-999,0,0.00
2013-5-5,73.9,61.7,45.3,40.2,32.0,22.6,44,33,25,29.12,28.94,0,-999,0,0.00
2013-5-6,77.4,62.1,46.1,43.6,37.1,30.6,58,41,27,29.12,28.94,0,-999,0,0.00
2013-5-7,84.7,68.1,47.7,47.2,39.9,35.2,65,39,21,29.06,28.88,0,-999,0,0.00
2013-5-8,82.7,75.3,66.4,58.1,53.8,42.3,72,48,36,28.97,28.82,0,-999,0,0.00
2013-5-9,75.9,69.4,64.9,64.4,60.1,51.7,92,73,50,28.94,28.76,0,-999,0,0.17
2013-5-10,86.6,69.9,58.9,64.2,56.5,50.4,92,65,35,29.00,28.76,0,-999,0,0.26
2013-5-11,78.7,69.2,60.1,57.7,49.5,39.6,84,54,29,29.09,28.97,0,-999,0,0.00
2013-5-12,80.0,67.0,54.8,47.2,41.9,33.4,65,42,23,29.21,29.09,0,-999,0,0.00
2013-5-13,86.1,68.8,47.4,49.1,39.2,34.4,65,38,19,29.21,29.09,0,-999,0,0.00
2013-5-14,85.4,74.0,60.4,60.1,51.0,40.1,69,46,28,29.18,28.94,0,-999,0,0.00
2013-5-15,83.6,74.5,60.0,68.7,63.3,58.0,98,69,49,29.92,28.76,10,-994,18,0.33
2013-5-16,88.0,75.3,63.5,67.8,64.6,58.8,93,72,41,28.88,28.67,0,-999,0,1.14
2013-5-17,90.6,80.9,73.2,68.0,65.5,62.3,81,61,41,28.85,28.76,0,-999,0,0.00
2013-5-18,93.6,81.4,70.8,66.9,60.8,53.7,82,53,31,28.88,28.76,0,-999,0,0.00
2013-5-19,90.6,80.2,71.2,65.4,61.3,56.3,74,54,38,28.82,28.70,0,-999,0,0.00
2013-5-20,90.9,80.6,72.1,65.8,62.8,59.5,78,57,37,28.82,28.64,0,-999,0,0.00
2013-5-21,88.7,76.7,68.9,69.1,62.7,52.1,77,63,42,28.85,28.67,0,-999,0,0.00
2013-5-22,89.1,75.3,54.9,60.5,51.6,47.2,77,48,24,28.91,28.79,0,-999,0,0.00
2013-5-23,86.3,78.8,71.8,66.3,64.1,60.4,78,62,45,29.00,28.85,0,-999,0,0.00
2013-5-24,81.4,73.0,66.9,68.4,65.6,62.2,93,78,61,29.09,28.97,0,-996,0,1.86
2013-5-25,80.2,68.7,67.1,73.2,59.4,-99.9,98,81,56,29.09,29.00,0,-999,0,1.80
2013-5-26,84.2,61.1,70.5,72.0,35.3,-99.9,94,62,54,29.06,28.91,0,-999,0,0.16
2013-5-27,86.7,77.0,70.3,66.1,63.9,61.4,84,65,44,28.97,28.79,0,-999,0,0.00
2013-5-28,87.9,78.6,71.8,65.8,62.7,59.6,77,60,40,28.85,28.73,0,-999,0,0.00
2013-5-29,84.8,77.0,73.0,70.3,65.2,62.6,78,68,50,28.85,28.67,4,-490,10,0.00
2013-5-30,87.8,79.8,73.9,67.7,65.4,63.0,77,63,44,28.79,28.70,3,-5,9,0.00
2013-5-31,89.0,81.5,75.4,68.2,66.2,63.7,78,61,45,28.85,28.70,4,-5,8,0.00
2013-6-1,92.2,73.1,75.4,68.1,47.5,-99.9,77,53,39,28.88,28.73,4,-20,8,0.00
2013-6-2,85.1,76.1,67.6,69.4,58.3,50.7,83,57,33,29.03,28.88,3,1,7,0.17
2013-6-3,90.7,77.3,60.7,58.5,53.1,47.5,75,47,23,28.97,28.79,3,1,5,0.00
2013-6-4,91.9,81.0,69.6,63.1,56.9,51.7,78,47,27,28.88,28.76,3,1,7,0.00
2013-6-5,92.8,81.4,70.0,64.7,58.2,53.4,79,48,28,28.88,28.73,4,1,8,0.00
2013-6-6,94.9,81.7,72.0,64.0,57.6,52.8,70,46,27,28.91,28.76,3,1,7,0.00
2013-6-7,87.8,76.0,66.4,59.5,51.4,43.0,72,45,25,28.97,28.85,3,1,5,0.00
2013-6-8,90.5,76.9,58.5,60.9,51.2,43.6,65,42,28,28.91,28.76,3,1,6,0.00
2013-6-9,84.9,77.5,66.8,66.7,62.6,57.2,82,61,43,28.94,28.82,4,1,7,0.21
2013-6-10,94.9,82.3,69.2,67.8,59.7,49.0,83,52,21,28.97,28.88,3,1,7,0.00
2013-6-11,91.8,82.3,73.0,67.8,62.2,56.1,79,53,32,29.00,28.91,4,1,7,0.00
2013-6-12,94.6,82.7,73.2,68.9,63.0,58.0,80,54,30,29.03,28.91,3,1,6,0.00
2013-6-13,95.9,83.1,73.4,69.9,62.2,54.5,79,52,29,29.03,28.88,3,1,7,0.00
2013-6-14,91.7,81.1,72.1,70.1,63.8,59.5,76,57,37,28.97,28.85,2,0,4,0.00
2013-6-15,88.5,82.0,76.5,71.4,64.4,60.0,79,57,38,28.97,28.88,2,0,8,0.00
2013-6-16,95.5,84.8,73.8,68.6,61.3,54.2,79,49,28,29.00,28.85,3,1,6,0.00
2013-6-17,95.2,85.0,75.4,67.6,61.9,55.3,74,49,28,28.97,28.82,3,1,6,0.00
2013-6-18,88.8,80.0,69.4,70.4,64.4,60.2,87,61,38,28.97,28.85,3,1,6,0.55
2013-6-19,94.0,83.8,72.0,69.4,62.0,56.3,81,51,30,28.94,28.85,3,1,6,0.00
2013-6-20,94.1,84.4,73.9,67.2,60.1,52.9,76,47,27,29.03,28.91,4,2,8,0.00
2013-6-21,95.0,84.9,74.7,68.2,59.5,50.5,76,46,24,29.03,28.91,4,2,9,0.00
2013-6-22,95.2,85.5,74.8,67.1,59.0,51.2,72,44,26,29.00,28.85,4,2,7,0.00
2013-6-23,94.1,84.6,74.7,67.2,58.7,49.0,73,44,25,28.94,28.85,4,2,8,0.00
2013-6-24,96.9,85.1,74.8,67.1,59.8,52.7,74,46,26,29.00,28.85,4,2,9,0.00
2013-6-25,97.8,86.4,76.6,66.8,59.2,50.6,70,43,21,28.97,28.82,4,2,11,0.00
2013-6-26,98.3,86.4,75.7,66.1,60.7,53.1,68,45,23,28.94,28.85,4,2,9,0.00
2013-6-27,99.6,86.7,75.1,66.1,56.7,42.0,71,41,17,29.00,28.85,3,1,8,0.00
2013-6-28,104.2,89.1,73.1,65.0,53.9,46.5,65,34,15,28.97,28.79,3,1,6,0.00
2013-6-29,105.9,91.3,75.6,62.1,51.0,44.4,50,28,14,28.85,28.73,4,1,7,0.00
2013-6-30,95.0,83.0,70.6,64.6,56.0,46.1,74,43,25,28.91,28.79,3,1,5,0.21
2013-7-1,88.9,79.1,69.9,51.1,45.2,38.9,45,31,20,29.00,28.88,3,1,5,0.00
2013-7-2,93.3,79.0,63.2,51.3,41.3,27.3,50,29,13,29.03,28.94,3,1,7,0.00
2013-7-3,96.3,80.5,62.1,51.3,38.4,31.8,43,24,12,29.03,28.88,3,1,6,0.00
2013-7-4,92.8,79.9,65.5,58.0,45.1,35.2,57,31,18,28.97,28.85,4,1,8,0.00
2013-7-5,97.8,85.0,68.6,60.1,49.0,42.7,59,32,17,28.97,28.79,4,1,10,0.00
2013-7-6,97.3,85.2,69.7,62.6,54.0,45.9,60,37,20,28.91,28.79,4,1,8,0.00
2013-7-7,97.9,85.8,73.1,66.7,59.3,52.8,69,43,23,28.97,28.85,4,1,8,0.00
2013-7-8,87.4,79.7,75.6,70.0,64.6,58.3,79,61,41,29.06,28.94,3,1,6,0.12
2013-7-9,97.5,85.5,72.5,69.6,62.0,53.8,84,50,26,29.12,28.94,3,1,7,0.00
2013-7-10,99.0,90.4,74.6,68.3,58.8,51.5,75,37,22,29.06,28.88,3,1,6,0.00
2013-7-11,99.7,87.9,75.7,67.0,56.8,45.0,67,38,17,28.97,28.85,3,1,6,0.00
2013-7-12,101.7,89.1,75.6,61.3,53.4,47.5,56,32,17,28.94,28.85,4,1,8,0.00
2013-7-13,103.3,89.6,72.9,59.6,52.0,44.2,55,31,17,28.94,28.82,4,1,6,0.00
2013-7-14,94.4,78.4,68.4,64.0,54.9,49.1,86,47,27,28.94,28.82,6,2,10,0.10
2013-7-15,73.3,69.3,66.9,72.2,67.7,63.7,98,95,86,29.00,28.88,4,1,7,3.86
2013-7-16,86.7,75.2,68.7,74.2,68.3,62.8,98,82,47,29.12,28.97,4,1,8,0.12
2013-7-17,86.0,74.6,71.2,74.0,69.2,66.6,96,84,54,29.15,29.06,4,1,7,0.49
2013-7-18,90.0,79.6,71.4,73.0,65.3,56.4,93,66,34,29.15,28.97,4,1,10,0.00
2013-7-19,92.2,80.9,69.7,69.2,60.3,53.4,82,54,27,29.03,28.88,4,1,8,0.00
2013-7-20,92.4,81.7,73.8,68.2,62.5,56.1,77,55,30,28.97,28.82,5,1,7,0.00
2013-7-21,93.3,80.7,72.8,70.7,66.2,61.3,81,64,34,28.91,28.85,4,1,6,0.60
2013-7-22,93.0,83.9,75.6,71.7,66.0,58.9,82,58,34,28.97,28.85,3,2,6,0.00
2013-7-23,94.0,84.3,76.2,69.4,62.9,53.9,76,52,28,28.97,28.85,3,2,7,0.00
2013-7-24,93.4,83.9,74.5,69.3,65.7,61.8,79,56,36,28.97,28.85,2,1,5,0.00
2013-7-25,96.4,84.9,74.1,69.6,61.8,54.5,77,49,28,29.00,28.91,3,1,6,0.00
2013-7-26,96.1,85.6,75.2,68.1,62.3,56.9,70,48,29,29.00,28.82,3,1,8,0.00
2013-7-27,86.8,79.2,72.9,69.4,63.9,59.0,78,61,41,28.97,28.88,3,1,5,0.00
2013-7-28,93.7,81.3,71.2,69.8,63.5,59.1,77,57,34,28.94,28.82,3,1,8,0.00
2013-7-29,96.3,85.7,77.0,68.3,60.9,49.9,72,47,21,29.00,28.91,4,2,8,0.00
2013-7-30,96.4,85.6,75.8,68.3,60.7,52.9,74,46,26,29.06,28.94,4,2,7,0.00
2013-7-31,98.3,86.0,73.9,67.3,59.0,52.7,76,44,22,29.06,28.91,3,1,6,0.00
2013-8-1,100.3,87.8,74.3,63.7,57.8,53.5,62,38,23,29.00,28.85,3,1,5,0.00
2013-8-2,98.1,87.6,75.4,59.3,55.3,50.9,55,35,21,28.94,28.85,3,1,6,0.00
2013-8-3,97.6,87.0,75.9,67.1,59.2,52.5,69,42,23,29.00,28.91,3,1,6,0.00
2013-8-4,97.4,87.0,75.7,68.8,61.6,55.7,72,45,28,29.06,28.91,3,1,6,0.00
2013-8-5,99.6,87.6,74.1,66.4,57.6,50.5,68,39,19,29.03,28.85,3,2,7,0.00
2013-8-6,100.4,88.2,75.0,66.6,59.0,50.2,68,41,20,28.91,28.79,4,2,7,0.00
2013-8-7,101.4,88.2,75.7,67.5,59.6,45.6,71,42,18,28.88,28.76,4,2,6,0.00
2013-8-8,100.9,87.8,75.4,66.4,57.5,43.6,70,40,16,28.88,28.76,4,1,9,0.00
2013-8-9,100.0,86.3,73.4,67.6,55.2,41.3,76,40,16,28.94,28.85,3,1,7,0.00
2013-8-10,101.5,86.6,73.4,67.4,57.1,44.9,73,40,20,29.03,28.91,5,1,7,0.49
2013-8-11,94.3,83.8,74.0,72.0,64.6,56.3,83,56,28,29.06,28.94,4,1,6,0.00
2013-8-12,97.3,84.5,72.7,67.7,60.8,53.4,79,49,26,29.06,28.88,3,1,6,0.00
2013-8-13,99.4,87.9,75.2,66.3,57.5,47.8,68,39,19,29.03,28.85,3,1,6,0.00
2013-8-14,97.8,81.4,74.1,67.5,60.9,53.6,79,52,28,29.00,28.88,5,1,8,0.22
2013-8-15,88.6,78.0,72.5,72.1,68.2,64.3,88,74,46,29.00,28.88,3,1,5,0.33
2013-8-16,89.3,78.4,70.0,73.2,63.4,53.8,91,64,32,29.03,28.91,3,1,6,0.00
2013-8-17,92.4,80.1,68.7,60.6,55.6,46.9,71,46,25,29.03,28.91,3,1,6,0.00
2013-8-18,94.3,79.9,64.6,56.8,51.2,47.4,66,40,22,29.03,28.94,3,1,6,0.00
2013-8-19,94.7,80.8,65.2,59.3,51.6,48.3,64,39,21,29.03,28.88,3,1,6,0.00
2013-8-20,95.1,82.8,67.1,61.4,53.2,45.0,65,39,19,29.00,28.91,4,1,8,0.00
2013-8-21,93.6,82.4,71.4,68.1,59.1,54.3,70,48,29,29.06,28.94,4,1,7,0.00
2013-8-22,96.8,85.6,72.1,67.9,59.6,54.3,71,44,27,29.06,28.88,4,1,8,0.00
2013-8-23,97.8,85.8,72.0,68.5,58.5,50.4,71,43,24,29.00,28.88,4,1,8,0.00
2013-8-24,98.3,85.5,73.8,64.2,57.7,52.9,62,41,26,29.03,28.91,4,1,9,0.00
2013-8-25,94.9,84.9,72.5,67.6,58.4,54.6,67,43,28,29.06,28.97,5,1,9,0.00
2013-8-26,91.7,81.2,74.8,65.6,61.2,56.4,68,52,32,29.12,28.97,4,2,8,0.00
2013-8-27,82.2,75.9,71.1,71.9,64.6,57.1,82,69,48,29.09,29.00,3,0,4,0.33
2013-8-28,94.5,81.6,69.6,71.7,61.7,54.9,88,56,28,29.09,28.97,3,1,10,0.00
2013-8-29,99.1,84.7,70.0,65.8,57.2,50.6,73,43,22,29.06,28.91,3,1,6,0.00
2013-8-30,103.3,86.9,72.1,60.8,53.1,45.0,62,35,17,29.00,28.85,4,1,8,0.00
2013-8-31,101.6,88.0,72.3,62.0,54.9,48.3,63,35,17,28.91,28.79,3,1,6,0.00
2013-9-1,100.6,87.5,74.5,63.2,56.8,52.2,60,37,23,28.88,28.79,3,1,8,0.00
2013-9-2,99.7,86.9,74.1,65.0,58.7,54.0,64,41,26,28.97,28.82,4,1,6,0.00
2013-9-3,101.1,85.5,72.2,65.6,59.6,54.1,68,44,25,28.97,28.85,3,0,6,0.05
2013-9-4,98.6,85.8,74.1,70.9,60.6,54.4,81,46,26,29.03,28.88,4,1,8,0.10
2013-9-5,96.7,84.3,71.7,66.5,59.5,53.6,70,46,27,29.09,28.94,4,1,7,0.00
2013-9-6,96.9,85.1,70.9,68.7,58.8,51.6,72,44,25,29.06,28.91,4,1,6,0.00
2013-9-7,96.6,82.4,70.2,68.6,59.5,55.0,70,49,26,29.00,28.88,4,1,10,0.00
2013-9-8,94.4,79.6,69.2,68.0,61.8,53.7,78,58,28,28.97,28.85,4,1,8,0.27
2013-9-9,92.3,77.5,68.6,70.8,63.5,54.7,86,66,29,28.97,28.88,4,1,12,1.14
2013-9-10,88.6,77.1,71.1,71.7,65.9,60.3,90,71,39,29.06,28.94,4,1,7,0.00
2013-9-11,91.0,80.3,71.0,71.0,61.5,52.5,86,57,28,29.09,28.94,5,1,6,0.00
2013-9-12,93.8,81.6,69.3,69.2,58.6,52.5,77,49,27,29.03,28.88,3,1,8,0.00
2013-9-13,96.1,83.0,68.8,67.3,55.8,48.3,73,43,21,28.94,28.79,3,1,7,0.00
2013-9-14,95.7,83.7,71.3,62.7,55.5,51.2,65,41,23,28.91,28.82,3,1,6,0.00
2013-9-15,91.6,81.6,71.8,66.9,60.4,56.0,70,50,32,29.00,28.88,3,1,6,0.00
2013-9-16,92.0,79.9,71.1,68.9,62.0,57.6,80,57,33,29.06,28.91,3,1,8,0.49
2013-9-17,90.0,79.8,72.3,72.9,65.4,57.7,87,64,36,29.06,28.91,3,0,6,0.00
2013-9-18,92.7,81.2,70.7,70.5,61.5,54.1,81,55,29,29.00,28.85,3,1,6,0.00
2013-9-19,89.6,79.2,73.4,70.9,65.3,60.6,86,64,41,28.94,28.79,3,1,6,0.38
2013-9-20,75.7,72.8,68.9,73.0,70.7,67.6,98,93,86,28.85,28.76,2,0,5,5.39
2013-9-21,80.5,71.5,63.1,68.5,53.2,37.1,97,58,22,28.91,28.82,3,1,6,0.00
2013-9-22,82.0,69.6,55.9,51.1,44.4,40.7,67,43,24,28.88,28.76,3,1,6,0.00
2013-9-23,86.8,71.4,56.3,53.3,46.5,42.1,70,45,22,28.82,28.73,2,0,4,0.00
2013-9-24,93.7,76.7,61.2,59.4,50.6,46.9,68,43,22,28.91,28.79,3,0,5,0.00
2013-9-25,94.6,78.4,63.2,60.8,53.1,50.1,71,45,24,28.88,28.76,4,0,6,0.00
2013-9-26,90.9,78.3,63.1,63.3,51.3,44.8,63,42,21,28.88,28.79,3,1,8,0.00
2013-9-27,88.1,79.1,71.7,69.2,65.9,62.6,79,65,47,28.91,28.79,2,1,6,0.00
2013-9-28,89.3,78.4,71.4,73.7,69.7,63.7,91,76,45,28.97,28.85,4,1,7,1.64
2013-9-29,74.9,68.0,64.0,68.7,60.9,55.2,92,79,51,29.03,28.91,3,1,4,0.17
2013-9-30,85.9,71.8,57.9,64.8,53.4,46.8,88,57,28,28.91,28.79,2,0,4,0.00
2013-10-1,87.6,73.9,61.9,68.6,59.1,51.8,87,62,36,28.91,28.82,3,0,5,0.00
2013-10-2,89.4,79.3,73.4,70.0,65.4,59.7,81,64,39,28.94,28.82,2,1,5,0.00
2013-10-3,90.1,80.3,72.5,70.3,63.7,56.8,84,59,36,28.91,28.79,3,1,6,0.00
2013-10-4,88.7,79.8,72.9,66.3,62.4,58.3,79,58,38,28.88,28.79,4,2,8,0.00
2013-10-5,87.8,72.9,60.8,68.5,54.3,33.5,80,54,35,29.06,28.85,3,1,8,0.00
2013-10-6,78.3,65.5,53.3,44.5,35.5,25.1,63,36,15,29.09,29.00,3,1,8,0.00
2013-10-7,84.2,65.3,46.9,44.3,34.3,28.8,56,34,16,29.12,29.00,2,0,4,0.00
2013-10-8,83.1,66.8,49.3,45.8,37.9,33.3,59,37,21,29.06,28.94,3,0,12,0.00
2013-10-9,81.4,67.8,51.2,52.5,43.7,35.2,60,43,30,29.03,28.91,3,1,7,0.00
2013-10-10,84.1,70.7,58.1,60.3,52.2,45.3,73,54,35,29.00,28.85,3,1,6,0.00
2013-10-11,86.8,76.6,70.1,68.4,63.4,57.9,77,65,43,28.91,28.79,3,1,6,0.00
2013-10-12,90.3,79.6,71.9,71.7,65.9,59.6,87,65,38,29.00,28.88,4,1,8,0.00
2013-10-13,75.0,70.2,66.2,68.2,65.3,62.9,92,85,73,29.12,29.00,3,1,7,1.19
2013-10-14,77.0,72.2,70.0,73.2,69.1,67.8,96,90,81,29.06,28.88,3,1,6,0.21
2013-10-15,77.9,70.5,56.8,70.7,64.1,50.2,93,81,66,28.97,28.85,3,1,5,0.00
2013-10-16,60.8,56.5,52.7,55.6,52.8,50.1,96,87,79,29.06,28.94,2,1,6,1.36
2013-10-17,70.7,59.7,48.3,50.7,44.0,40.3,84,59,34,29.09,28.94,2,0,4,0.00
2013-10-18,70.0,62.2,53.6,57.9,51.1,43.4,77,68,54,29.00,28.85,4,0,8,0.00
2013-10-19,65.5,54.8,45.1,51.2,37.8,32.6,81,56,33,29.18,29.00,3,1,6,0.00
2013-10-20,72.1,56.7,39.6,43.8,37.1,30.6,72,50,32,29.06,28.85,2,1,6,0.00
2013-10-21,79.1,65.0,54.3,60.0,51.5,39.3,77,62,48,29.03,28.88,3,1,5,0.00
2013-10-22,73.9,61.2,49.7,48.3,38.8,32.4,71,47,23,29.12,29.03,2,1,5,0.00
2013-10-23,81.4,62.6,46.9,47.5,37.4,33.9,65,43,21,29.12,29.03,2,0,4,0.00
2013-10-24,81.2,63.1,47.5,47.2,37.5,34.3,65,42,22,29.18,29.09,2,0,4,0.00
2013-10-25,75.5,63.7,49.7,50.7,45.0,36.5,69,52,40,29.29,29.15,3,1,7,0.00
2013-10-26,77.8,68.0,61.3,58.6,53.9,50.5,73,62,44,29.18,29.00,3,1,6,0.00
2013-10-27,71.0,65.9,61.3,60.1,56.6,53.4,83,72,57,29.09,28.97,2,0,4,0.00
2013-10-28,77.7,70.1,63.3,65.5,60.6,57.1,90,73,50,29.06,28.94,3,1,7,0.00
2013-10-29,77.5,50.4,69.8,66.0,14.0,-99.9,80,51,55,29.03,28.94,4,-9,6,0.00
2013-10-30,80.4,73.9,70.9,72.7,67.6,61.8,92,81,65,29.00,28.79,3,1,6,0.73
2013-10-31,77.8,65.9,51.3,70.2,45.7,-99.9,96,60,20,28.85,28.70,5,1,9,0.26
2013-11-1,80.5,62.4,46.3,48.5,37.4,29.0,71,44,20,29.06,28.79,4,1,8,0.00
2013-11-2,72.6,59.6,46.9,36.6,31.7,26.8,51,36,22,29.26,29.06,3,1,6,0.00
2013-11-3,67.9,54.6,39.7,43.2,32.3,26.3,63,44,28,29.18,28.94,3,1,6,0.00
2013-11-4,63.3,60.8,57.9,60.0,52.8,43.5,90,75,56,29.03,28.94,2,0,6,0.10
2013-11-5,76.3,69.0,63.0,65.7,62.6,59.6,94,81,60,28.97,28.85,2,1,5,0.00
2013-11-6,70.5,58.1,46.3,65.3,49.0,35.3,92,73,43,29.29,28.94,4,1,6,0.41
2013-11-7,63.5,51.8,38.6,37.4,32.7,29.0,73,50,29,29.41,29.29,3,1,8,0.00
2013-11-8,64.3,54.8,46.8,40.7,36.2,32.3,71,51,33,29.32,29.12,2,0,5,0.00
2013-11-9,67.1,60.2,54.5,50.3,44.6,37.3,67,56,50,29.15,29.06,2,0,6,0.00
2013-11-10,69.4,61.5,54.0,53.0,48.8,43.6,77,64,49,29.26,29.12,2,0,4,0.00
2013-11-11,72.8,59.5,46.4,51.1,44.9,38.8,80,60,40,29.23,29.12,2,0,4,0.00
2013-11-12,56.7,50.9,39.2,52.0,35.6,16.3,84,58,36,29.56,29.21,4,1,8,0.00
2013-11-13,54.7,41.5,31.3,25.4,18.6,14.9,52,40,28,29.59,29.32,2,1,5,0.00
2013-11-14,61.2,47.3,29.6,38.8,26.0,15.0,60,45,28,29.32,29.00,3,1,6,0.00
2013-11-15,76.3,63.0,49.4,52.4,47.0,38.7,77,57,38,29.00,28.82,3,1,6,0.00
2013-11-16,78.3,70.1,62.4,64.9,58.9,52.0,79,68,49,28.85,28.70,4,2,8,0.00
2013-11-17,87.7,73.7,57.7,68.1,55.9,42.2,89,58,26,28.94,28.73,3,1,6,0.00
2013-11-18,73.0,63.9,56.0,45.0,41.3,35.8,62,44,35,29.09,28.91,2,1,4,0.00
2013-11-19,70.2,61.0,52.7,38.7,35.6,33.1,49,39,29,29.12,28.94,3,1,6,0.00
2013-11-20,71.2,62.6,56.8,58.1,46.1,36.7,80,55,45,28.97,28.85,2,1,5,0.00
2013-11-21,78.4,70.6,64.4,68.4,63.5,58.1,92,79,62,29.03,28.88,3,0,6,0.43
2013-11-22,69.9,38.6,33.8,64.8,34.5,29.3,90,85,71,29.32,29.03,5,2,8,1.40
2013-11-23,40.1,36.6,33.8,37.6,33.5,31.0,94,89,74,29.41,29.29,3,2,6,0.20
2013-11-24,40.0,36.2,33.1,32.4,26.6,20.9,80,68,51,29.41,29.26,3,1,9,0.11
2013-11-25,37.9,35.8,33.1,34.1,31.5,27.8,88,84,79,29.29,29.06,3,1,5,0.41
2013-11-26,52.2,41.1,35.8,31.1,27.0,19.8,79,59,36,29.29,29.09,6,3,10,0.00
2013-11-27,50.9,38.7,30.5,21.1,17.6,14.4,56,43,28,29.41,29.29,3,1,6,0.00
2013-11-28,53.8,39.1,29.5,27.9,20.6,15.3,65,49,31,29.38,29.26,2,0,4,0.00
2013-11-29,60.6,46.0,29.2,40.4,30.7,16.3,72,56,42,29.44,29.29,2,0,4,0.00
2013-11-30,63.1,54.8,49.4,48.4,42.4,37.0,80,63,54,29.32,29.15,2,0,4,0.00
2013-12-1,71.0,61.8,54.6,55.4,51.6,48.9,87,70,48,29.15,28.88,3,1,6,0.00
2013-12-2,79.5,63.1,48.3,53.6,42.1,31.2,86,52,21,28.91,28.64,3,1,6,0.00
2013-12-3,81.6,63.5,44.2,44.5,36.1,30.7,68,39,20,28.67,28.56,2,0,8,0.00
2013-12-4,74.5,62.3,50.7,56.8,48.7,34.4,83,62,48,28.76,28.61,2,0,4,0.00
2013-12-5,62.4,40.5,29.9,58.3,27.0,15.4,88,59,43,29.06,28.73,4,2,6,0.00
2013-12-6,32.2,29.8,25.3,27.4,21.9,14.1,83,72,62,29.38,29.03,4,2,6,0.00
2013-12-7,27.8,25.0,22.8,18.6,14.0,10.9,74,63,57,29.41,29.23,3,1,6,0.00
2013-12-8,45.9,33.2,25.7,34.9,25.3,18.6,76,73,63,29.21,28.97,1,0,4,0.00
2013-12-9,36.9,34.5,31.1,34.9,31.0,25.1,93,87,77,29.32,29.00,3,1,6,0.05
2013-12-10,45.2,32.9,24.5,25.1,18.0,13.9,79,56,37,29.44,29.26,3,1,6,0.00
2013-12-11,56.1,39.2,25.2,29.5,21.1,13.8,68,50,30,29.50,29.26,2,0,4,0.00
2013-12-12,52.1,39.6,29.3,28.3,22.9,17.3,62,52,38,29.50,29.26,2,0,4,0.00
2013-12-13,48.7,43.7,39.4,46.9,34.9,25.8,93,72,55,29.23,28.85,2,0,3,0.25
2013-12-14,48.8,43.2,35.8,47.0,34.3,23.1,96,72,48,29.29,28.82,5,2,7,0.00
2013-12-15,60.0,42.4,28.9,33.3,24.4,18.8,67,50,32,29.32,29.21,2,0,5,0.00
2013-12-16,66.0,45.2,29.5,32.0,24.8,18.8,70,47,26,29.23,29.12,2,0,6,0.00
2013-12-17,70.9,48.7,33.3,39.0,27.0,21.2,66,46,23,29.26,29.18,2,0,3,0.00
2013-12-18,68.4,52.0,34.9,47.2,35.3,21.9,69,54,37,29.23,29.00,3,1,8,0.00
2013-12-19,73.0,63.6,54.3,58.7,51.4,44.3,79,66,46,29.00,28.76,5,2,10,0.00
2013-12-20,71.7,67.1,62.6,63.4,59.6,47.2,83,77,57,28.82,28.64,3,1,8,0.00
2013-12-21,64.2,50.1,40.3,57.6,40.4,29.9,94,72,43,28.79,28.56,6,1,8,0.48
2013-12-22,50.6,42.7,34.2,36.9,27.9,19.3,83,57,38,29.32,28.79,5,2,8,0.00
2013-12-23,54.4,38.7,27.7,26.8,20.9,17.6,69,50,30,29.47,29.29,2,0,5,0.00
2013-12-24,57.5,40.8,26.8,30.5,20.9,15.4,68,47,27,29.47,29.21,3,1,5,0.00
2013-12-25,60.2,47.0,36.9,40.4,33.4,25.9,73,59,47,29.32,29.18,2,1,4,0.00
2013-12-26,56.9,43.9,34.2,34.5,29.7,25.5,72,58,40,29.35,29.26,3,0,4,0.00
2013-12-27,58.9,46.6,37.0,37.0,31.4,28.5,74,57,37,29.38,29.26,2,0,4,0.00
2013-12-28,61.6,47.7,33.8,39.6,31.8,25.5,77,56,37,29.26,28.97,2,0,4,0.00
2013-12-29,57.3,45.3,31.3,44.4,36.1,25.8,81,70,55,29.23,28.91,4,1,8,0.00
2013-12-30,45.3,36.0,30.2,25.8,20.3,16.2,79,54,39,29.32,29.18,3,1,5,0.00
2013-12-31,55.0,40.3,31.1,27.9,22.9,18.0,67,51,34,29.38,29.18,2,0,4,0.00
2014-1-1,67.9,49.8,32.9,46.3,34.1,20.0,81,56,40,29.18,28.91,4,1,9,0.00
2014-1-2,50.2,38.8,27.4,32.7,17.5,9.3,56,43,28,29.38,29.09,4,2,8,0.00